Find Starlink 34612

NORAD ID: 64773 Int'l Des: 2025-147 Owner: SPXS Country: US Constellation: starlink operational
LEOCIRCULAR

当前视图

正在加载3D地球...

About Starlink 34612

Starlink 34612 (NORAD 64773) is a starlink constellation satellite (v2 mini) launched Jul 8, 2025 by SPXS of US. It operates in LEO, CIRCULAR orbit with a mass of 575.00 kg.

关于 Starlink 34612

正在加载描述...

即将过境

Passes for default location (London). Set your location on the main map for personalized predictions.

高度历史

Loading altitude history...

两行轨道根数

1 64773U 25147U 26194.48125221 .00012312 00000-0 37495-3 0 9993
2 64773 53.1615 16.1480 0001664 117.9125 242.2046 15.34397949 58044
Epoch: Jul 13, 2026 • Age: 14 hours

当前状态

高度 463.1 km
远地点 / 近地点 N/A
速度 7.64 km/s
星下点 17.63°N, 69.41°E
发射日期 Jul 8, 2025
运行时间 1 year
类型 internet

技术详情

分类 Payload
质量 575.00 kg
干质量 530.00 kg
总质量 575.00 kg
长度 0.30 m
直径 4.10 m
跨度 29.00 m
形状 Box + pan
制造商 SPXS
平台类型 Starlink V2MO
阶段状态 In Orbit
所有者/国家 SPXS/US

Most Searched